FW8143 Weather Reports


time (UTC)temp
F
wind
direction
speed
knots
gust
knots
rain 1hr
in
rain 24hr
in
rain mn
in
humidity
%
barometer
mb
20260831225306 66 53 4.3 11.3 0.00 0.00 0.00 64 1030.1
20260831224804 67 78 5.2 11.3 0.00 0.00 0.00 63 1030.1
20260831224304 68 87 7.0 17.4 0.00 0.00 0.00 60 1030.3
20260831223804 69 111 7.8 17.4 0.00 0.00 0.00 57 1030.3
20260831223304 70 111 8.7 20.0 0.00 0.00 0.00 54 1030.3
20260831222804 72 100 11.3 27.8 0.00 0.00 0.00 51 1030.3
20260831222301 73 140 14.8 27.8 0.00 0.00 0.00 45 1030.4
20260831221802 76 143 12.2 31.3 0.00 0.00 0.00 42 1030.3
20260831221302 79 170 7.0 31.3 0.00 0.00 0.00 37 1029.7
20260831220802 81 222 4.3 11.3 0.00 0.00 0.00 33 1029.9
20260831220300 81 207 5.2 10.4 0.00 0.00 0.00 32 1029.8
20260831215759 81 237 5.2 10.4 0.00 0.00 0.00 32 1029.8
20260831215259 82 175 4.3 9.6 0.00 0.00 0.00 32 1030.1
20260831214752 82 279 4.3 9.6 0.00 0.00 0.00 32 1030.1
20260831214246 82 248 5.2 10.4 0.00 0.00 0.00 32 1029.8
20260831213740 82 253 4.3 10.4 0.00 0.00 0.00 32 1029.9
20260831213235 82 215 3.5 9.6 0.00 0.00 0.00 32 1030.2
20260831212728 82 174 3.5 9.6 0.00 0.00 0.00 32 1030.2
20260831212225 82 175 3.5 10.4 0.00 0.00 0.00 32 1030.3
20260831211725 82 168 5.2 13.0 0.00 0.00 0.00 33 1030.4
20260831211225 82 186 6.1 13.0 0.00 0.00 0.00 33 1030.4
20260831210725 80 189 4.3 10.4 0.00 0.00 0.00 35 1030.6
20260831210225 79 161 3.5 8.7 0.00 0.00 0.00 38 1030.6
20260831210219 79 158 3.5 8.7 0.00 0.00 0.00 38 1030.6
20260831205448 78 117 3.5 8.7 0.00 0.00 0.00 40 1030.7
20260831204725 78 78 3.5 10.4 0.00 0.00 0.00 40 1030.8
20260831204225 78 136 4.3 11.3 0.00 0.00 0.00 39 1030.8
20260831203724 79 98 5.2 12.2 0.00 0.00 0.00 39 1030.9
20260831203224 79 107 5.2 12.2 0.00 0.00 0.00 37 1030.9
20260831202721 80 112 3.5 10.4 0.00 0.00 0.00 36 1030.7
20260831202219 80 139 2.6 8.7 0.00 0.00 0.00 37 1030.8
20260831201720 80 80 2.6 8.7 0.00 0.00 0.00 36 1030.8
20260831201446 80 133 2.6 8.7 0.00 0.00 0.00 36 1030.8
20260831200720 80 347 4.3 9.6 0.00 0.00 0.00 37 1030.9
20260831200220 80 76 3.5 9.6 0.00 0.00 0.00 37 1031.1
20260831195719 79 165 2.6 7.0 0.00 0.00 0.00 36 1030.9
20260831195213 79 188 3.5 8.7 0.00 0.00 0.00 36 1031.1
20260831194707 79 88 4.3 8.7 0.00 0.00 0.00 36 1031.1
20260831194201 79 136 4.3 8.7 0.00 0.00 0.00 37 1031.2
20260831193655 79 184 5.2 8.7 0.00 0.00 0.00 35 1031.2
20260831193149 79 151 5.2 8.7 0.00 0.00 0.00 38 1031.3
20260831192643 79 211 6.1 13.0 0.00 0.00 0.00 35 1031.3
20260831192136 80 200 7.0 13.0 0.00 0.00 0.00 33 1031.3
20260831191631 80 306 7.0 12.2 0.00 0.00 0.00 32 1031.3
20260831191125 81 268 6.1 12.2 0.00 0.00 0.00 33 1031.3
20260831190619 80 223 6.1 13.9 0.00 0.00 0.00 34 1031.3
20260831190113 80 233 6.1 13.0 0.00 0.00 0.00 34 1031.3
20260831185606 80 201 8.7 17.4 0.00 0.00 0.00 33 1031.5
20260831185101 80 198 8.7 17.4 0.00 0.00 0.00 33 1031.6
20260831184555 80 198 5.2 11.3 0.00 0.00 0.00 33 1031.6
20260831184309 81 192 5.2 13.9 0.00 0.00 0.00 32 1031.6
20260831183542 81 186 5.2 13.9 0.00 0.00 0.00 32 1031.6
20260831183037 81 200 6.1 13.9 0.00 0.00 0.00 32 1031.7
20260831182531 82 213 7.0 13.9 0.00 0.00 0.00 31 1031.8
20260831182025 82 240 6.1 13.0 0.00 0.00 0.00 31 1031.8
20260831181519 82 290 4.3 13.0 0.00 0.00 0.00 31 1031.8
20260831181235 82 190 3.5 11.3 0.00 0.00 0.00 32 1032.0
20260831180507 81 251 3.5 11.3 0.00 0.00 0.00 31 1032.1
20260831180218 82 223 3.5 10.4 0.00 0.00 0.00 31 1032.1
20260831175454 81 198 2.6 6.1 0.00 0.00 0.00 33 1032.1
20260831174950 81 293 2.6 9.6 0.00 0.00 0.00 32 1032.1
20260831174443 80 175 2.6 9.6 0.00 0.00 0.00 33 1032.2
20260831173937 79 226 2.6 7.0 0.00 0.00 0.00 34 1032.1
20260831173431 79 290 2.6 7.0 0.00 0.00 0.00 35 1032.2
20260831172926 78 63 1.7 6.1 0.00 0.00 0.00 34 1032.2
20260831172640 78 327 2.6 9.6 0.00 0.00 0.00 36 1032.2
20260831171912 77 329 5.2 10.4 0.00 0.00 0.00 37 1032.2
20260831171407 76 331 6.1 11.3 0.00 0.00 0.00 37 1032.3
20260831170901 76 329 5.2 11.3 0.00 0.00 0.00 38 1032.3
20260831170355 76 330 4.3 9.6 0.00 0.00 0.00 37 1032.3
20260831165849 76 307 4.3 9.6 0.00 0.00 0.00 38 1032.5
20260831165343 75 5 4.3 12.2 0.00 0.00 0.00 39 1032.5
20260831164837 74 339 5.2 12.2 0.00 0.00 0.00 39 1032.5
20260831164331 74 296 5.2 11.3 0.00 0.00 0.00 42 1032.3
20260831163825 73 0 4.3 11.3 0.00 0.00 0.00 42 1032.3
20260831163319 72 259 5.2 11.3 0.00 0.00 0.00 43 1032.3
20260831162813 71 5 6.1 11.3 0.00 0.00 0.00 43 1032.3
20260831162307 71 346 6.1 13.0 0.00 0.00 0.00 44 1032.2
20260831161802 71 315 6.1 13.0 0.00 0.00 0.00 44 1032.2
20260831161255 70 350 6.1 10.4 0.00 0.00 0.00 45 1032.3
20260831160749 69 329 7.0 12.2 0.00 0.00 0.00 46 1032.2
20260831160244 69 20 7.0 12.2 0.00 0.00 0.00 47 1032.3
20260831155745 68 314 6.1 13.0 0.00 0.00 0.00 48 1032.3
20260831155242 68 304 6.1 13.0 0.00 0.00 0.00 49 1032.2
20260831154744 67 29 7.8 13.9 0.00 0.00 0.00 50 1032.2
20260831154243 67 0 7.8 13.9 0.00 0.00 0.00 51 1032.2
20260831153743 67 26 7.8 13.9 0.00 0.00 0.00 51 1032.2
20260831153243 67 336 8.7 16.5 0.00 0.00 0.00 52 1032.3
20260831152743 66 279 8.7 16.5 0.00 0.00 0.00 52 1032.3
20260831152241 66 15 7.8 14.8 0.00 0.00 0.00 53 1032.3
20260831152002 65 30 7.8 13.9 0.00 0.00 0.00 53 1032.3
20260831151507 65 17 8.7 14.8 0.00 0.00 0.00 53 1032.3
20260831151003 65 9 10.4 14.8 0.00 0.00 0.00 55 1032.5
20260831150241 64 30 11.3 15.6 0.00 0.00 0.00 56 1032.6
20260831145740 64 22 11.3 15.6 0.00 0.00 0.00 56 1032.6
20260831145241 64 29 10.4 15.6 0.00 0.00 0.00 56 1032.7
20260831144740 64 25 11.3 16.5 0.00 0.00 0.00 58 1032.8
20260831144235 63 20 12.2 18.2 0.00 0.00 0.00 58 1032.8
20260831143729 63 9 13.0 18.2 0.00 0.00 0.00 58 1032.8
20260831143226 63 10 12.2 18.2 0.00 0.00 0.00 59 1033.0
20260831142726 63 24 13.0 19.1 0.00 0.00 0.00 59 1033.0
20260831142227 63 38 12.2 19.1 0.00 0.00 0.00 59 1032.8
20260831141727 62 42 10.4 17.4 0.00 0.00 0.00 60 1032.8
20260831141227 62 328 10.4 16.5 0.00 0.00 0.00 60 1032.7
20260831140727 62 32 11.3 18.2 0.00 0.00 0.00 60 1032.8
20260831140227 62 10 12.2 20.9 0.00 0.00 0.00 60 1032.8
20260831135727 62 0 13.0 20.9 0.00 0.00 0.00 60 1032.8
20260831135227 62 15 12.2 20.9 0.00 0.00 0.00 59 1032.7
20260831134727 62 24 12.2 20.0 0.00 0.00 0.00 59 1032.7
20260831134227 62 345 13.0 20.0 0.00 0.00 0.00 59 1032.7
20260831133727 61 24 12.2 17.4 0.00 0.00 0.00 58 1032.6
20260831133227 61 21 13.0 20.0 0.00 0.00 0.00 57 1032.6
20260831132728 62 39 13.9 20.0 0.00 0.00 0.00 57 1032.5
20260831132228 62 355 13.9 20.0 0.00 0.00 0.00 57 1032.3
20260831131726 61 299 13.9 20.9 0.00 0.00 0.00 57 1032.5
20260831131226 61 43 13.0 20.9 0.00 0.00 0.00 57 1032.3
20260831130728 61 5 12.2 20.0 0.00 0.00 0.00 56 1032.3
20260831130228 61 5 10.4 16.5 0.00 0.00 0.00 56 1032.3
20260831125728 61 35 10.4 15.6 0.00 0.00 0.00 56 1032.2
20260831125226 61 26 13.0 20.9 0.00 0.00 0.00 56 1032.1
20260831124726 61 12 14.8 20.9 0.00 0.00 0.00 56 1032.0
20260831124227 60 17 13.0 20.0 0.00 0.00 0.00 57 1031.8
20260831123726 60 28 12.2 17.4 0.00 0.00 0.00 57 1032.0
20260831123227 61 18 13.0 18.2 0.00 0.00 0.00 57 1031.8
20260831122727 61 5 12.2 18.2 0.00 0.00 0.00 57 1031.8
20260831122454 61 30 12.2 16.5 0.00 0.00 0.00 57 1031.8
20260831121727 61 28 11.3 17.4 0.00 0.00 0.00 57 1031.8
20260831121221 62 19 11.3 17.4 0.00 0.00 0.00 57 1032.0
20260831120719 62 32 9.6 15.6 0.00 0.00 0.00 56 1032.0
20260831120218 62 12 7.8 14.8 0.00 0.00 0.00 55 1031.8
20260831115719 62 295 7.0 14.8 0.00 0.00 0.00 55 1032.0
20260831115218 62 321 7.8 14.8 0.00 0.00 0.00 53 1031.8
20260831114719 62 342 9.6 14.8 0.00 0.00 0.00 52 1031.7
20260831114218 62 13 9.6 12.2 0.00 0.00 0.00 52 1031.5
20260831113718 62 32 7.8 12.2 0.00 0.00 0.00 52 1031.3
20260831113218 62 30 7.8 11.3 0.00 0.00 0.00 52 1031.2
20260831112718 62 9 7.8 11.3 0.00 0.00 0.00 52 1031.2
20260831112218 62 13 7.8 10.4 0.00 0.00 0.00 52 1031.2
20260831111718 62 51 8.7 13.9 0.00 0.00 0.00 52 1031.2
20260831111219 62 14 9.6 13.9 0.00 0.00 0.00 53 1031.2
20260831110718 62 30 8.7 13.0 0.00 0.00 0.00 53 1031.2
20260831110218 62 17 7.8 13.0 0.00 0.00 0.00 53 1031.3
20260831105718 62 355 7.8 11.3 0.00 0.00 0.00 53 1031.3
20260831105220 62 5 7.0 12.2 0.00 0.00 0.00 53 1031.3
20260831104720 62 15 8.7 13.9 0.00 0.00 0.00 53 1031.3
20260831104213 62 19 8.7 13.9 0.00 0.00 0.00 53 1031.2
20260831103929 62 9 7.8 14.8 0.00 0.00 0.00 53 1031.3
20260831103202 62 14 8.7 14.8 0.00 0.00 0.00 54 1031.2
20260831102655 61 9 7.8 13.0 0.00 0.00 0.00 54 1031.2
20260831102151 61 12 6.1 13.0 0.00 0.00 0.00 54 1031.3
20260831101644 61 24 7.8 13.0 0.00 0.00 0.00 54 1031.3
20260831101137 61 19 7.0 11.3 0.00 0.00 0.00 54 1031.2
20260831100632 61 24 5.2 10.4 0.00 0.00 0.00 54 1031.2
20260831100125 61 61 6.1 13.0 0.00 0.00 0.00 54 1031.1
20260831095619 61 30 7.0 13.0 0.00 0.00 0.00 53 1031.1
20260831095113 62 14 6.1 9.6 0.00 0.00 0.00 53 1030.9
20260831094608 62 25 5.2 10.4 0.00 0.00 0.00 53 1030.8
20260831094319 62 23 6.1 11.3 0.00 0.00 0.00 53 1030.8
20260831093555 62 46 6.1 11.3 0.00 0.00 0.00 53 1030.8
20260831093050 62 45 6.1 10.4 0.00 0.00 0.00 53 1030.7
20260831092544 62 50 6.1 10.4 0.00 0.00 0.00 53 1030.8
20260831092038 62 5 7.0 11.3 0.00 0.00 0.00 53 1030.8
20260831091752 62 33 5.2 11.3 0.00 0.00 0.00 53 1030.7
20260831091026 63 19 6.1 11.3 0.00 0.00 0.00 53 1030.7
20260831090519 63 25 6.1 11.3 0.00 0.00 0.00 53 1030.8
20260831090014 63 22 5.2 10.4 0.00 0.00 0.00 53 1030.8
20260831085507 63 46 7.0 11.3 0.00 0.00 0.00 53 1030.9
20260831085002 64 5 8.7 13.9 0.00 0.00 0.00 52 1030.8
20260831084456 64 24 8.7 13.9 0.00 0.00 0.00 52 1030.9
20260831083950 64 14 8.7 14.8 0.00 0.00 0.00 52 1030.9
20260831083443 64 13 9.6 14.8 0.00 0.00 0.00 52 1030.9
20260831082938 64 39 9.6 13.9 0.00 0.00 0.00 53 1030.9
20260831082431 64 23 10.4 15.6 0.00 0.00 0.00 53 1031.1
20260831081925 64 19 10.4 16.5 0.00 0.00 0.00 52 1030.9
20260831081420 65 12 11.3 16.5 0.00 0.00 0.00 52 1030.9
20260831081135 65 17 11.3 15.6 0.00 0.00 0.00 51 1030.9
20260831080408 65 36 10.4 14.8 0.00 0.00 0.00 51 1031.1
20260831075901 65 19 9.6 13.9 0.00 0.00 0.00 50 1031.1
20260831075355 65 26 9.6 13.0 0.00 0.00 0.00 50 1031.1
20260831074850 66 13 9.6 13.0 0.00 0.00 0.00 49 1031.1
20260831074343 66 20 8.7 12.2 0.00 0.00 0.00 48 1031.1
20260831074103 66 13 8.7 12.2 0.00 0.00 0.00 47 1031.1
20260831073331 66 355 7.8 12.2 0.00 0.00 0.00 46 1030.9
20260831072825 67 5 8.7 12.2 0.00 0.00 0.00 46 1031.1
20260831072809 67 15 8.7 12.2 0.00 0.00 0.00 45 1030.9
20260831071813 67 30 9.6 13.0 0.00 0.00 0.00 45 1031.1
20260831071307 67 0 8.7 15.6 0.00 0.00 0.00 45 1031.1
20260831070801 67 19 8.7 15.6 0.00 0.00 0.00 45 1031.1
20260831070520 67 5 10.4 17.4 0.00 0.00 0.00 45 1031.1
20260831065749 67 25 10.4 17.4 0.00 0.00 0.00 45 1030.9
20260831065244 67 11 11.3 17.4 0.00 0.00 0.00 45 1031.1
20260831064737 68 40 13.0 20.0 0.00 0.00 0.00 44 1031.1
20260831064231 68 17 13.0 20.0 0.00 0.00 0.00 44 1030.9
20260831063725 68 19 12.2 20.0 0.00 0.00 0.00 44 1031.1
20260831063220 68 348 9.6 25.2 0.00 0.00 0.00 43 1031.1
20260831062714 68 341 6.1 25.2 0.00 0.00 0.00 42 1031.1
20260831062208 68 32 4.3 7.8 0.00 0.00 0.00 41 1030.8
20260831061701 67 80 4.3 8.7 0.00 0.00 0.00 42 1030.7
20260831061155 67 52 4.3 8.7 0.00 0.00 0.00 42 1030.7
20260831060914 67 44 3.5 7.0 0.00 0.00 0.00 42 1030.7
20260831060142 67 55 3.5 6.1 0.00 0.00 0.00 42 1030.7
20260831055636 67 62 3.5 7.0 0.00 0.00 0.00 42 1030.7
20260831055131 67 35 3.5 7.0 0.00 0.00 0.00 43 1030.8
20260831054624 67 57 2.6 5.2 0.00 0.00 0.00 43 1030.8
20260831054119 67 57 1.7 5.2 0.00 0.00 0.00 43 1030.9
20260831053612 67 31 0.9 5.2 0.00 0.00 0.00 43 1030.9
20260831053108 67 63 2.6 6.1 0.00 0.00 0.00 44 1030.9
20260831052602 67 85 2.6 6.1 0.00 0.00 0.00 44 1030.9
20260831052054 67 84 2.6 6.1 0.00 0.00 0.00 44 1030.9
20260831051550 68 70 2.6 5.2 0.00 0.00 0.00 44 1030.9
20260831051043 68 99 2.6 3.5 0.00 0.00 0.00 43 1030.8
20260831050538 68 94 0.9 3.5 0.00 0.00 0.00 43 1030.7
20260831050033 68 92 0.9 1.7 0.00 0.00 0.00 43 1030.7
20260831045523 69 80 0.9 2.6 0.00 0.00 0.00 42 1030.8
20260831045018 69 90 0.9 2.6 0.00 0.00 0.00 42 1030.8
20260831044737 69 89 0.9 2.6 0.00 0.00 0.00 42 1030.8
20260831044008 69 90 0.9 2.6 0.00 0.00 0.00 42 1030.8
20260831043502 70 112 0.9 3.5 0.00 0.00 0.00 41 1030.8
20260831042955 70 105 1.7 5.2 0.00 0.00 0.00 41 1030.8
20260831042448 70 110 1.7 5.2 0.00 0.00 0.00 41 1030.8
20260831041942 71 98 0.9 3.5 0.00 0.00 0.00 40 1030.8
20260831041435 71 63 0.9 3.5 0.00 0.00 0.00 40 1030.8
20260831040932 71 61 1.7 5.2 0.00 0.00 0.00 40 1030.8
20260831040647 71 88 2.6 5.2 0.00 0.00 0.00 40 1030.8
20260831035919 71 63 3.5 6.1 0.00 0.00 0.00 40 1030.8
20260831035413 71 72 3.5 6.1 0.00 0.00 0.00 40 1030.8
20260831035124 71 53 3.5 6.1 0.00 0.00 0.00 40 1030.8
20260831034402 71 77 2.6 5.2 0.00 0.00 0.00 40 1030.8
20260831033855 71 51 2.6 5.2 0.00 0.00 0.00 40 1030.7
20260831033349 71 68 3.5 6.1 0.00 0.00 0.00 40 1030.7
20260831032844 71 98 3.5 6.1 0.00 0.00 0.00 40 1030.7
20260831032337 71 103 2.6 6.1 0.00 0.00 0.00 40 1030.8
20260831031831 71 78 3.5 6.1 0.00 0.00 0.00 40 1030.7
20260831031326 71 86 3.5 6.1 0.00 0.00 0.00 41 1030.6
20260831030820 71 39 3.5 5.2 0.00 0.00 0.00 41 1030.3
20260831030313 71 19 2.6 5.2 0.00 0.00 0.00 41 1030.3
20260831025808 71 67 3.5 6.1 0.00 0.00 0.00 41 1030.3
20260831025306 71 68 3.5 6.1 0.00 0.00 0.00 41 1030.2
20260831025016 71 26 2.6 4.3 0.00 0.00 0.00 40 1030.1
20260831024858 71 40 2.6 5.2 0.00 0.00 0.00 40 1030.2
20260831023804 71 58 2.6 7.0 0.00 0.00 0.00 40 1030.1
20260831023524 72 37 2.6 7.0 0.00 0.00 0.00 39 1029.9
20260831022804 72 39 2.6 4.3 0.00 0.00 0.00 39 1029.9
20260831022306 72 27 2.6 4.3 0.00 0.00 0.00 39 1029.8
20260831021804 73 30 2.6 4.3 0.00 0.00 0.00 39 1029.9
20260831021304 73 31 3.5 4.3 0.00 0.00 0.00 39 1029.9
20260831020805 74 24 3.5 6.1 0.00 0.00 0.00 38 1029.8
20260831020304 74 16 4.3 6.1 0.00 0.00 0.00 37 1029.7
20260831015804 74 13 4.3 6.1 0.00 0.00 0.00 37 1029.6
20260831015306 75 5 3.5 6.1 0.00 0.00 0.00 36 1029.7
20260831014804 75 16 1.7 4.3 0.00 0.00 0.00 36 1029.6
20260831014304 76 28 1.7 3.5 0.00 0.00 0.00 36 1029.6
20260831013800 76 17 0.9 2.6 0.00 0.00 0.00 35 1029.6
20260831013258 76 348 0.0 2.6 0.00 0.00 0.00 35 1029.6
20260831012758 77 15 0.0 1.7 0.00 0.00 0.00 35 1029.6
20260831012251 77 15 0.0 1.7 0.00 0.00 0.00 35 1029.6
20260831011748 78 15 0.9 2.6 0.00 0.00 0.00 35 1029.6
20260831011505 78 15 0.9 2.6 0.00 0.00 0.00 35 1029.6
20260831010734 78 336 0.9 2.6 0.00 0.00 0.00 36 1029.6
20260831010227 78 346 0.9 2.6 0.00 0.00 0.00 34 1029.6
20260831005722 78 25 0.9 2.6 0.00 0.00 0.00 34 1029.6
20260831005217 78 0 0.9 4.3 0.00 0.00 0.00 33 1029.7
20260831004709 79 332 0.9 4.3 0.00 0.00 0.00 34 1029.7
20260831004204 79 0 0.0 3.5 0.00 0.00 0.00 35 1029.7
20260831003658 79 19 1.7 7.0 0.00 0.00 0.00 34 1029.7
20260831003152 80 0 2.6 7.0 0.00 0.00 0.00 33 1029.7
20260831002646 80 31 1.7 6.1 0.00 0.00 0.00 33 1029.7
20260831002140 80 21 0.0 2.6 0.00 0.00 0.00 33 1029.8
20260831001634 80 338 0.0 0.9 0.00 0.00 0.00 34 1029.9
20260831001128 80 232 0.9 2.6 0.00 0.00 0.00 33 1029.8
20260831000621 81 273 0.9 4.3 0.00 0.00 0.00 32 1029.8
20260831000115 81 261 0.9 4.3 0.00 0.00 0.00 32 1029.8
20260830235610 81 254 0.0 1.7 0.00 0.00 0.00 32 1029.8
20260830235104 82 153 0.0 3.5 0.00 0.00 0.00 31 1029.7
20260830234605 82 142 1.7 6.1 0.00 0.00 0.00 31 1029.8
20260830234104 82 38 2.6 7.8 0.00 0.00 0.00 31 1029.7
20260830233602 83 335 3.5 10.4 0.00 0.00 0.00 30 1029.7
20260830233100 83 342 3.5 11.3 0.00 0.00 0.00 30 1029.7
20260830232601 83 297 3.5 11.3 0.00 0.00 0.00 30 1029.7
20260830232100 83 298 2.6 7.0 0.00 0.00 0.00 30 1029.7
20260830231600 83 131 2.6 7.8 0.00 0.00 0.00 31 1029.7
20260830231100 83 355 2.6 7.8 0.00 0.00 0.00 31 1029.7
20260830230600 82 308 2.6 7.0 0.00 0.00 0.00 32 1029.7
20260830230318 82 258 2.6 8.7 0.00 0.00 0.00 33 1029.8
20260830225816 82 64 3.5 10.4 0.00 0.00 0.00 33 1029.8